Overview Statistics Trail Chart Weather Telemetry Raw packets
 

This is the latest recevied weather packets stored in our database for station/object SV9TNF-51. If no packets are shown the sender has not sent any weather packets the latest 10 day(s).

<< 89 90 91 92 93 94 95 >>
Time Temp. Humidity Pressure Rain* Wind** Luminosity Snow
1788002810 33.89° C 32% 1014.2 hPa 0 mm 0.45 m/s, 136° - -
1788002509 34.44° C 31% 1014.2 hPa 0 mm 0.89 m/s, 126° - -
1788002209 34.44° C 31% 1014.2 hPa 0 mm 1.79 m/s, 327° - -
1788001909 33.33° C 34% 1014.2 hPa 0 mm 4.92 m/s, 93° - -
1788001609 33.89° C 34% 1014.2 hPa 0 mm 1.79 m/s, 103° - -
1788001309 33.33° C 33% 1014.2 hPa 0 mm 2.24 m/s, 133° - -
1788001009 33.33° C 34% 1013.9 hPa 0 mm 2.24 m/s, 113° - -
1788000709 35° C 33% 1013.9 hPa 0 mm 0.89 m/s, 130° - -
1788000408 33.33° C 32% 1013.9 hPa 0 mm 1.79 m/s, 152° - -
1788000109 32.78° C 34% 1013.9 hPa 0 mm 1.34 m/s, 115° - -
1787999809 32.78° C 35% 1014.2 hPa 0 mm 4.02 m/s, 117° - -
1787999508 32.78° C 38% 1014.2 hPa 0 mm 2.24 m/s, 113° - -
1787999208 32.22° C 37% 1014.2 hPa 0 mm 4.47 m/s, 115° - -
1787998908 31.67° C 41% 1013.9 hPa 0 mm 6.26 m/s, 129° - -
1787998608 31.67° C 41% 1013.9 hPa 0 mm 3.13 m/s, 118° - -
1787998308 32.22° C 39% 1013.9 hPa 0 mm 5.81 m/s, 124° - -
1787998008 33.33° C 36% 1013.9 hPa 0 mm 2.24 m/s, 125° - -
1787997708 31.67° C 42% 1013.9 hPa 0 mm 5.81 m/s, 121° - -
1787997408 31.67° C 41% 1013.9 hPa 0 mm 4.47 m/s, 119° - -
1787997108 31.11° C 42% 1013.9 hPa 0 mm 5.81 m/s, 120° - -
1787996808 31.11° C 41% 1014.2 hPa 0 mm 3.58 m/s, 138° - -
1787996508 30.56° C 44% 1014.2 hPa 0 mm 5.81 m/s, 128° - -
1787996207 30° C 44% 1014.2 hPa 0 mm 5.36 m/s, 144° - -
1787995907 30.56° C 45% 1014.2 hPa 0 mm 3.13 m/s, 116° - -
1787995607 29.44° C 45% 1014.2 hPa 0 mm 4.02 m/s, 119° - -

* Rain latest hour (hover to see other rain measurements)
** Current wind speed in m/s (hover to see current wind gust speed)